Flag for Norway Weather past 2 weeks in Kristiansund, Norway

39 °F

Scattered clouds.

Feels Like: 32 °F
Forecast: 41 / 52 °F
Wind: 12 mph from Southwest

Location: Kristiansund / Kvernberget

Current Time: Nov 25, 2015 at 10:05:47 AM

Latest Report: Nov 25, 2015 at 9:20 AM

Visibility: N/A

Pressure: 29.27 "Hg

Humidity: 87%

Dew point: 36 °F

Location of KristiansundLocation

Historic Weather in Kristiansund — Graph


Kristiansund temperature yesterday

Maximum temperature yesterday: 46 °F (at 11:50 AM)
Minimum temperature yesterday: 39 °F (at 7:50 PM)
Average temperature yesterday: 43 °F

Past Weeks' High & Low Weather Summary

High50 °F (Nov 13, 5:50 AM)100% (Nov 15, 1:50 PM)29.86 "Hg (Nov 15, 1:50 PM)
Low27 °F (Nov 22, 3:20 AM)40% (Nov 14, 7:50 AM)29.00 "Hg (Nov 16, 3:50 PM)
Average40 °F80%29.41 "Hg
* Reported Nov 10 8:20 AM — Nov 25 8:50 AM, Kristiansund, Weather by CustomWeather, © 2015

Note: Actual official high and low records may vary slightly from our data, if they occured in-between our weather recording intervals... More about our weather records


Kristiansund weather history for previous 24 hours

Time TempWeatherWind HumidityBarometerVisibility
8:50 AM
Wed, Nov 25
39 °FPartly cloudy.14 mph87%29.27 "HgN/A
7:50 AM39 °FPartly cloudy.14 mph87%29.24 "HgN/A
7:20 AM39 °FSprinkles. Partly cloudy.10 mph87%29.21 "HgN/A
6:50 AM39 °FSprinkles. Partly cloudy.9 mph87%29.21 "HgN/A
6:20 AM39 °FSprinkles. Partly cloudy.10 mph87%29.21 "HgN/A
5:50 AM39 °FSprinkles. Partly cloudy.12 mph87%29.21 "HgN/A
5:20 AM39 °FLight rain. Partly cloudy.16 mph87%29.21 "Hg4 mi
4:50 AM41 °FDrizzle. Overcast.16 mph81%29.18 "HgN/A
4:20 AM43 °FOvercast.10 mph71%29.18 "HgN/A
3:50 AM43 °FOvercast.8 mph66%29.18 "HgN/A
3:20 AM39 °FMostly cloudy.2 mph75%29.18 "HgN/A
2:50 AM41 °FPassing clouds.2 mph70%29.18 "HgN/A
2:20 AM45 °FPassing clouds.7 mph61%29.18 "HgN/A
1:50 AM43 °FMostly cloudy.8 mph66%29.18 "HgN/A
1:20 AM41 °FMostly cloudy.3 mph66%29.18 "HgN/A
12:50 AM41 °FPassing clouds.1 mph66%29.18 "HgN/A
12:20 AM43 °FPassing clouds.2 mph61%29.21 "HgN/A
11:50 PM
Tue, Nov 24
41 °FOvercast.1 mph61%29.21 "HgN/A
10:50 PM43 °FPassing clouds.2 mph57%29.21 "HgN/A
10:20 PM43 °FPartly cloudy.3 mph57%29.21 "HgN/A
9:50 PM43 °FPassing clouds.3 mph57%29.21 "HgN/A
9:20 PM41 °FPassing clouds.2 mph66%29.21 "HgN/A
8:50 PM41 °FPassing clouds.3 mph66%29.24 "HgN/A
8:20 PM41 °FPassing clouds.3 mph66%29.24 "HgN/A
7:50 PM39 °FClear.2 mph75%29.24 "Hg10 mi
7:20 PM41 °FPassing clouds.2 mph70%29.24 "HgN/A
6:50 PM41 °FPassing clouds.2 mph70%29.24 "HgN/A
6:20 PM41 °FPassing clouds.1 mph70%29.24 "HgN/A
5:50 PM41 °FPartly cloudy.3 mph76%29.27 "HgN/A
5:20 PM41 °FPassing clouds.2 mph76%29.27 "HgN/A
4:50 PM41 °FPassing clouds.6 mph81%29.27 "HgN/A
4:20 PM41 °FPassing clouds.5 mph76%29.27 "HgN/A
3:50 PM41 °FPassing clouds.5 mph81%29.27 "HgN/A
3:20 PM41 °FPassing clouds.5 mph81%29.27 "HgN/A
2:50 PM41 °FPartly sunny.3 mph81%29.30 "HgN/A
2:20 PM43 °FScattered clouds.6 mph71%29.27 "HgN/A
1:50 PM43 °FScattered clouds.5 mph66%29.30 "HgN/A
1:20 PM43 °FPartly sunny.3 mph71%29.30 "HgN/A
12:50 PM43 °FPartly sunny.6 mph71%29.30 "HgN/A
12:20 PM45 °FPartly sunny.6 mph61%29.30 "HgN/A
11:50 AM46 °FScattered clouds.10 mph53%29.30 "HgN/A
11:20 AM45 °FScattered clouds.8 mph61%29.30 "HgN/A
10:50 AM43 °FScattered clouds.7 mph71%29.33 "HgN/A
Weather by CustomWeather, © 2015

See weather overviewHow to use our weather pages